Regional Weather Roundup
Issued by NWS Charleston, WV

Home | Current Version | Previous Version | Text Only | Print | Product List | Glossary Off
Versions: 1 2 3 4 5 6 7 8 9 10 11 12 13 14 15 16 17 18 19 20 21 22 23 24 25 26 27

000
ASUS41 KRLX 290210
RWRRLX
West Virginia Regional Weather Roundup
National Weather Service Charleston WV
1000 PM EDT THU JUL 28 2016

Note: "fair" indicates few or no clouds below 12,000 feet with no
significant weather and/or obstructions to visibility.

WVZ003-290300-
Northern Panhandle of West Virginia

CITY           SKY/WX    TMP DP  RH WIND       PRES   REMARKS
WHEELING       MOCLDY    70  67  90 CALM      29.94R
$$

WVZ009-290300-
Northwest West Virginia

CITY           SKY/WX    TMP DP  RH WIND       PRES   REMARKS
PARKERSBURG    MOCLDY    71  70  96 CALM      29.95R FOG
$$

WVZ006-290300-
Western West Virginia

CITY           SKY/WX    TMP DP  RH WIND       PRES   REMARKS
HUNTINGTON     CLOUDY    73  71  93 SW3       29.93R
$$

WVZ015-290300-
West Central West Virginia

CITY           SKY/WX    TMP DP  RH WIND       PRES   REMARKS
CHARLESTON     CLOUDY    72  70  93 W6        29.93R FOG
$$

WVZ022-031-290300-
North Central West Virginia

CITY           SKY/WX    TMP DP  RH WIND       PRES   REMARKS
CLARKSBURG     RAIN      69  68  96 NW3       29.93R FOG
MORGANTOWN     LGT RAIN  69  67  93 CALM      29.95R FOG
$$

WVZ025-035-042-045-290300-
Southern West Virginia

CITY           SKY/WX    TMP DP  RH WIND       PRES   REMARKS
BECKLEY        LGT RAIN  69  67  93 W7        30.00R
LOGAN          CLOUDY    70  70 100 CALM      29.96R FOG
BLUEFIELD      LGT RAIN  67  66  97 W9        30.03R
LEWISBURG      LGT RAIN  69  68  96 CALM      29.97R
$$

WVZ047-290300-
Northern Mountains of West Virginia

CITY           SKY/WX    TMP DP  RH WIND       PRES   REMARKS
ELKINS         HVY RAIN  69  67  93 N6        29.95R FOG
$$

WVZ052-290300-
Eastern Panhandle of West Virginia

CITY           SKY/WX    TMP DP  RH WIND       PRES   REMARKS
MARTINSBURG    CLOUDY    72  69  90 CALM      29.89R
PETERSBURG     CLOUDY    72  71  97 CALM      29.92R
$$




USA.gov is the U.S. government's official web portal to all federal, state and local government web resources and services.